Location: *
(40.7765°S, 106.5327°E)
Time: 15:25:33
(UTC+00:00)

IRIDIUM 106 - Pass Details

Date: 26 May 2022
Orbit: 776 x 779 km, 86.4° (Epoch: 04 July)

Event Time Altitude Azimuth Distance (km) Brightness Sun altitude
Rises 11:34:13 0° 11° (N) 3,248 7.6 -21.6°
Reaches altitude 10° 11:36:35 10° 14° (NNE) 2,329 6.7 -22.1°
Maximum altitude 11:41:41 57° 92° (E) 919 4.3 -23.0°
Enters shadow 11:41:53 57° 101° (ESE) 923 4.3 -23.0°
